Погода в Дятлово

Беларусь     53°27′56″N   25°24′20″E
темп.,
°C
ветер,
м/с
пор.,
м/с
влажн.,
%
обл.,
%
осадки,
мм/ч
давл.,
гПа
погр.,
м
15 апреля, чт
чт1500:00+5св51197100 0.3 1015376
03:00+6св4898100 0.8 1015306
06:00+6всв3699100 0.9 1015262
09:00+7св3698100 1.7 1016335
12:00+7св4794100 0.3 1016357
15:00+8ссв5786100 0.3 1016577
18:00+4с4994100 1.9 1016480
21:00+4с41095100 3.6 1015582
16 апреля, пт
пт1600:00+4с41096100 2.0 1014514
03:00+5ссв41197100 3.5 1013587
06:00+5св51197100 0.4 1012419
09:00+8всв599273 0.4 1013490
12:00+12всв686999 0.4 10131392
15:00+13св6873100 4.3 10141286
18:00+13в57695 1.8 10141160
21:00+8в338639 2.3 101634
17 апреля, сб
сб1700:00+7всв389498 0.2 1016219
03:00+6всв379712 0.3 1017173
06:00+5в369719 0.0 1018120
09:00+8в358786 0.0 1019343
12:00+11вюв347575 0.1 1020804
15:00+13вюв356089 0.6 10201376
18:00+13вюв3466100 0.7 10201056
21:00+9ююв2283100 1.2 102122
18 апреля, вс
вс1800:00+7ююз2491100 0.0 102280
03:00+6ююз2390100 0.1 1022112
06:00+6ю1288100 0.2 1022134
09:00+7ю33795 0.2 1022349
12:00+11ююв33613 0.0 1023957
15:00+13юв225163 0.0 10221616
18:00+13вюв3452100 0.0 1022263
21:00+11вюв226199 0.0 102234
19 апреля, пн
пн1900:00+9вюв4879100 0.0 1023209
03:00+9в4885100 0.1 1022205
06:00+8всв4984100 0.0 1021240
09:00+10всв5980100 0.0 1020328
12:00+14в6862100 0.8 10191258
15:00+12вюв7974100 2.1 10181307
18:00+12в61173100 1.3 1016982
21:00+10в51185100 1.9 1015685